| time (UTC) | temp F | wind direction | speed MPH | gust MPH | rain 1hr in | rain 24hr in | rain mn in | humidity % | barometer mb |
| 20260504100416 | 44 | 0.0 | 0.0 | 0.00 | 0.00 | 0.00 | 91 | 1018.5 | |
| 20260504081916 | 46 | 0.0 | 0.0 | 0.00 | 0.00 | 0.00 | 88 | 1018.7 | |
| 20260504081416 | 46 | 0.0 | 0.0 | 0.00 | 0.00 | 0.00 | 87 | 1018.8 | |
| 20260504080916 | 47 | 0.0 | 0.0 | 0.00 | 0.00 | 0.00 | 87 | 1018.8 | |
| 20260504080416 | 47 | 0.0 | 0.0 | 0.00 | 0.00 | 0.00 | 86 | 1018.8 | |
| 20260504050416 | 52 | 0.0 | 0.0 | 0.00 | 0.00 | 0.00 | 75 | 1018.9 | |
| 20260504045916 | 52 | 0.0 | 0.0 | 0.00 | 0.00 | 0.00 | 74 | 1019.0 | |
| 20260504045416 | 52 | 0.0 | 0.0 | 0.00 | 0.00 | 0.00 | 74 | 1018.9 | |
| 20260504044916 | 52 | 0.0 | 0.0 | 0.00 | 0.00 | 0.00 | 73 | 1018.9 | |
| 20260504044416 | 53 | 0.0 | 0.0 | 0.00 | 0.00 | 0.00 | 73 | 1018.9 | |
| 20260504043916 | 53 | 0.0 | 0.0 | 0.00 | 0.00 | 0.00 | 73 | 1018.8 | |
| 20260504043416 | 53 | 0.0 | 0.0 | 0.00 | 0.00 | 0.00 | 73 | 1018.9 | |
| 20260504042916 | 53 | 0.0 | 0.0 | 0.00 | 0.00 | 0.00 | 72 | 1018.8 | |
| 20260504042416 | 53 | 0.0 | 0.0 | 0.00 | 0.00 | 0.00 | 72 | 1018.8 | |
| 20260504041916 | 53 | 0.0 | 0.0 | 0.00 | 0.00 | 0.00 | 72 | 1018.8 | |
| 20260504041416 | 54 | 0.0 | 0.0 | 0.00 | 0.00 | 0.00 | 71 | 1018.8 | |
| 20260504040916 | 54 | 0.0 | 0.0 | 0.00 | 0.00 | 0.00 | 72 | 1018.7 | |
| 20260504040416 | 54 | 0.0 | 0.0 | 0.00 | 0.00 | 0.00 | 70 | 1018.8 | |
| 20260504035917 | 54 | 0.0 | 0.0 | 0.00 | 0.00 | 0.00 | 70 | 1018.7 | |
| 20260504035417 | 55 | 0.0 | 0.0 | 0.00 | 0.00 | 0.00 | 69 | 1018.7 | |
| 20260504034917 | 55 | 0.0 | 0.0 | 0.00 | 0.00 | 0.00 | 68 | 1018.7 | |
| 20260504034417 | 55 | 0.0 | 0.0 | 0.00 | 0.00 | 0.00 | 68 | 1018.7 | |
| 20260504033917 | 54 | 0.0 | 1.0 | 0.00 | 0.00 | 0.00 | 70 | 1018.5 | |
| 20260504033417 | 54 | 0.0 | 0.0 | 0.00 | 0.00 | 0.00 | 69 | 1018.6 | |
| 20260504032917 | 54 | 0.0 | 0.0 | 0.00 | 0.00 | 0.00 | 69 | 1018.8 | |
| 20260504032417 | 54 | 0.0 | 0.0 | 0.00 | 0.00 | 0.00 | 69 | 1018.7 | |
| 20260504031917 | 54 | 0.0 | 0.0 | 0.00 | 0.00 | 0.00 | 68 | 1018.7 | |
| 20260504031417 | 54 | 0.0 | 0.0 | 0.00 | 0.00 | 0.00 | 67 | 1018.6 | |
| 20260504030917 | 53 | 0.0 | 2.0 | 0.00 | 0.00 | 0.00 | 69 | 1018.5 | |
| 20260504030417 | 53 | 0.0 | 0.0 | 0.00 | 0.00 | 0.00 | 69 | 1018.4 | |
| 20260504025917 | 54 | 0.0 | 0.0 | 0.00 | 0.00 | 0.00 | 69 | 1018.4 | |
| 20260504025417 | 54 | 0.0 | 0.0 | 0.00 | 0.00 | 0.00 | 68 | 1018.4 | |
| 20260504024917 | 53 | 0.0 | 0.0 | 0.00 | 0.00 | 0.00 | 69 | 1018.3 | |
| 20260504024417 | 53 | 0.0 | 0.0 | 0.00 | 0.00 | 0.00 | 69 | 1018.3 | |
| 20260504023917 | 53 | 0.0 | 0.0 | 0.00 | 0.00 | 0.00 | 68 | 1018.2 | |
| 20260504023417 | 53 | 0.0 | 0.0 | 0.00 | 0.00 | 0.00 | 68 | 1018.2 | |
| 20260504022917 | 54 | 0.0 | 0.0 | 0.00 | 0.00 | 0.00 | 69 | 1018.2 | |
| 20260504022417 | 53 | 0.0 | 0.0 | 0.00 | 0.00 | 0.00 | 68 | 1018.1 | |
| 20260504021917 | 54 | 0.0 | 0.0 | 0.00 | 0.00 | 0.00 | 67 | 1018.1 | |
| 20260504021417 | 54 | 0.0 | 0.0 | 0.00 | 0.00 | 0.00 | 67 | 1018.0 | |
| 20260504020917 | 54 | 0.0 | 0.0 | 0.00 | 0.00 | 0.00 | 66 | 1018.1 | |
| 20260504020417 | 54 | 0.0 | 0.0 | 0.00 | 0.00 | 0.00 | 66 | 1018.0 | |
| 20260504015917 | 55 | 0.0 | 0.0 | 0.00 | 0.00 | 0.00 | 65 | 1018.1 | |
| 20260504015417 | 55 | 0.0 | 0.0 | 0.00 | 0.00 | 0.00 | 65 | 1018.1 | |
| 20260504014917 | 55 | 0.0 | 0.0 | 0.00 | 0.00 | 0.00 | 64 | 1018.0 | |
| 20260504014417 | 56 | 0.0 | 0.0 | 0.00 | 0.00 | 0.00 | 63 | 1018.0 | |
| 20260504013917 | 56 | 0.0 | 0.0 | 0.00 | 0.00 | 0.00 | 62 | 1018.0 | |
| 20260504013417 | 56 | 0.0 | 0.0 | 0.00 | 0.00 | 0.00 | 62 | 1017.9 | |
| 20260504012917 | 56 | 0.0 | 0.0 | 0.00 | 0.00 | 0.00 | 61 | 1017.8 | |
| 20260504012417 | 56 | 0.0 | 0.0 | 0.00 | 0.00 | 0.00 | 61 | 1017.9 | |
| 20260504011917 | 56 | 0.0 | 0.0 | 0.00 | 0.00 | 0.00 | 62 | 1017.9 | |
| 20260504011417 | 56 | 0.0 | 0.0 | 0.00 | 0.00 | 0.00 | 61 | 1018.1 | |
| 20260504010917 | 57 | 0.0 | 0.0 | 0.00 | 0.00 | 0.00 | 60 | 1017.9 | |
| 20260504010417 | 57 | 0.0 | 0.0 | 0.00 | 0.00 | 0.00 | 58 | 1017.9 | |
| 20260504005917 | 58 | 0.0 | 0.0 | 0.00 | 0.00 | 0.00 | 59 | 1017.9 | |
| 20260504005417 | 58 | 0.0 | 0.0 | 0.00 | 0.00 | 0.00 | 58 | 1017.8 | |
| 20260504004917 | 58 | 0.0 | 0.0 | 0.00 | 0.00 | 0.00 | 58 | 1017.8 | |
| 20260504004417 | 58 | 0.0 | 0.0 | 0.00 | 0.00 | 0.00 | 56 | 1017.7 | |
| 20260504003917 | 59 | 0.0 | 0.0 | 0.00 | 0.00 | 0.00 | 55 | 1017.4 | |
| 20260504003417 | 59 | 0.0 | 0.0 | 0.00 | 0.00 | 0.00 | 55 | 1017.4 | |
| 20260504002917 | 60 | 0.0 | 0.0 | 0.00 | 0.00 | 0.00 | 54 | 1017.4 | |
| 20260504002417 | 61 | 0.0 | 0.0 | 0.00 | 0.00 | 0.00 | 54 | 1017.3 | |
| 20260504001917 | 61 | 0.0 | 0.0 | 0.00 | 0.00 | 0.00 | 52 | 1017.3 | |
| 20260504001417 | 61 | 0.0 | 0.0 | 0.00 | 0.00 | 0.00 | 50 | 1017.3 | |
| 20260504000917 | 62 | 0.0 | 1.0 | 0.00 | 0.00 | 0.00 | 50 | 1017.3 | |
| 20260504000417 | 62 | 0.0 | 1.0 | 0.00 | 0.00 | 0.00 | 51 | 1017.4 | |
| 20260503235917 | 62 | 0.0 | 0.0 | 0.00 | 0.00 | 0.00 | 50 | 1017.5 | |
| 20260503235417 | 63 | 0.0 | 1.0 | 0.00 | 0.00 | 0.00 | 48 | 1017.7 | |
| 20260503234917 | 63 | 0.0 | 1.0 | 0.00 | 0.00 | 0.00 | 48 | 1017.7 | |
| 20260503234417 | 63 | 0.0 | 1.0 | 0.00 | 0.00 | 0.00 | 47 | 1017.7 | |
| 20260503233917 | 63 | 225 | 1.0 | 2.0 | 0.00 | 0.00 | 0.00 | 47 | 1017.6 |
| 20260503233417 | 64 | 0.0 | 0.0 | 0.00 | 0.00 | 0.00 | 46 | 1017.7 | |
| 20260503232917 | 64 | 0.0 | 1.0 | 0.00 | 0.00 | 0.00 | 47 | 1017.7 | |
| 20260503232417 | 64 | 248 | 1.0 | 3.0 | 0.00 | 0.00 | 0.00 | 47 | 1017.8 |
| 20260503231916 | 64 | 0.0 | 0.0 | 0.00 | 0.00 | 0.00 | 46 | 1017.8 | |
| 20260503231417 | 64 | 135 | 1.0 | 2.0 | 0.00 | 0.00 | 0.00 | 46 | 1017.8 |
| 20260503230917 | 65 | 0.0 | 1.0 | 0.00 | 0.00 | 0.00 | 46 | 1017.9 | |
| 20260503230417 | 65 | 225 | 1.0 | 2.0 | 0.00 | 0.00 | 0.00 | 46 | 1018.0 |
| 20260503225917 | 65 | 0.0 | 1.0 | 0.00 | 0.00 | 0.00 | 44 | 1018.0 | |
| 20260503225416 | 66 | 248 | 1.0 | 1.0 | 0.00 | 0.00 | 0.00 | 44 | 1018.0 |
| 20260503224917 | 66 | 293 | 1.0 | 2.0 | 0.00 | 0.00 | 0.00 | 43 | 1018.1 |
| 20260503224417 | 67 | 248 | 2.0 | 3.0 | 0.00 | 0.00 | 0.00 | 42 | 1018.2 |
| 20260503223917 | 67 | 248 | 1.0 | 2.0 | 0.00 | 0.00 | 0.00 | 41 | 1018.3 |
| 20260503223416 | 68 | 315 | 1.0 | 3.0 | 0.00 | 0.00 | 0.00 | 41 | 1018.4 |
| 20260503222917 | 68 | 248 | 1.0 | 2.0 | 0.00 | 0.00 | 0.00 | 42 | 1018.5 |
| 20260503222417 | 68 | 248 | 1.0 | 1.0 | 0.00 | 0.00 | 0.00 | 42 | 1018.5 |
| 20260503221917 | 69 | 270 | 2.0 | 4.0 | 0.00 | 0.00 | 0.00 | 41 | 1018.6 |
| 20260503221417 | 68 | 225 | 3.0 | 5.0 | 0.00 | 0.00 | 0.00 | 41 | 1018.6 |
| 20260503220917 | 68 | 0.0 | 2.0 | 0.00 | 0.00 | 0.00 | 42 | 1018.5 | |
| 20260503220417 | 68 | 315 | 2.0 | 3.0 | 0.00 | 0.00 | 0.00 | 40 | 1018.7 |
| 20260503215916 | 68 | 225 | 1.0 | 3.0 | 0.00 | 0.00 | 0.00 | 42 | 1018.7 |
| 20260503215417 | 68 | 135 | 1.0 | 2.0 | 0.00 | 0.00 | 0.00 | 40 | 1018.8 |
| 20260503214917 | 68 | 248 | 3.0 | 5.0 | 0.00 | 0.00 | 0.00 | 40 | 1018.8 |
| 20260503214417 | 69 | 248 | 2.0 | 6.0 | 0.00 | 0.00 | 0.00 | 40 | 1018.8 |
| 20260503213917 | 70 | 45 | 1.0 | 2.0 | 0.00 | 0.00 | 0.00 | 39 | 1018.9 |
| 20260503213417 | 70 | 0.0 | 1.0 | 0.00 | 0.00 | 0.00 | 42 | 1019.0 | |
| 20260503212917 | 69 | 0.0 | 1.0 | 0.00 | 0.00 | 0.00 | 41 | 1019.1 | |
| 20260503212417 | 69 | 180 | 2.0 | 6.0 | 0.00 | 0.00 | 0.00 | 42 | 1019.1 |
| 20260503211917 | 69 | 248 | 1.0 | 2.0 | 0.00 | 0.00 | 0.00 | 43 | 1019.1 |
| 20260503211417 | 69 | 0.0 | 1.0 | 0.00 | 0.00 | 0.00 | 41 | 1019.2 | |
| 20260503210917 | 68 | 248 | 1.0 | 2.0 | 0.00 | 0.00 | 0.00 | 42 | 1019.1 |
| 20260503210417 | 68 | 293 | 3.0 | 6.0 | 0.00 | 0.00 | 0.00 | 39 | 1019.2 |
| 20260503205917 | 69 | 158 | 1.0 | 2.0 | 0.00 | 0.00 | 0.00 | 44 | 1019.1 |
| 20260503205416 | 68 | 225 | 1.0 | 1.0 | 0.00 | 0.00 | 0.00 | 42 | 1019.3 |
| 20260503204917 | 68 | 0.0 | 1.0 | 0.00 | 0.00 | 0.00 | 46 | 1019.5 | |
| 20260503204416 | 68 | 225 | 2.0 | 4.0 | 0.00 | 0.00 | 0.00 | 41 | 1019.6 |
| 20260503203917 | 69 | 113 | 1.0 | 2.0 | 0.00 | 0.00 | 0.00 | 43 | 1019.6 |
| 20260503203417 | 69 | 135 | 1.0 | 1.0 | 0.00 | 0.00 | 0.00 | 44 | 1019.6 |
| 20260503202917 | 68 | 0 | 1.0 | 3.0 | 0.00 | 0.00 | 0.00 | 45 | 1019.8 |
| 20260503202417 | 68 | 270 | 2.0 | 3.0 | 0.00 | 0.00 | 0.00 | 43 | 1019.8 |
| 20260503201917 | 68 | 293 | 1.0 | 2.0 | 0.00 | 0.00 | 0.00 | 41 | 1019.8 |
| 20260503201416 | 68 | 225 | 1.0 | 2.0 | 0.00 | 0.00 | 0.00 | 44 | 1019.9 |
| 20260503200916 | 68 | 338 | 1.0 | 2.0 | 0.00 | 0.00 | 0.00 | 42 | 1020.1 |
| 20260503200417 | 68 | 225 | 2.0 | 5.0 | 0.00 | 0.00 | 0.00 | 44 | 1020.3 |
| 20260503195917 | 68 | 248 | 1.0 | 2.0 | 0.00 | 0.00 | 0.00 | 42 | 1020.3 |
| 20260503195416 | 68 | 90 | 1.0 | 2.0 | 0.00 | 0.00 | 0.00 | 46 | 1020.3 |
| 20260503194917 | 68 | 158 | 1.0 | 1.0 | 0.00 | 0.00 | 0.00 | 41 | 1020.2 |
| 20260503194416 | 67 | 225 | 1.0 | 2.0 | 0.00 | 0.00 | 0.00 | 43 | 1020.3 |
| 20260503193917 | 67 | 90 | 1.0 | 2.0 | 0.00 | 0.00 | 0.00 | 44 | 1020.7 |
| 20260503193416 | 67 | 270 | 1.0 | 2.0 | 0.00 | 0.00 | 0.00 | 45 | 1020.7 |
| 20260503192917 | 67 | 270 | 1.0 | 2.0 | 0.00 | 0.00 | 0.00 | 43 | 1020.8 |
| 20260503192417 | 66 | 180 | 1.0 | 2.0 | 0.00 | 0.00 | 0.00 | 45 | 1020.7 |
| 20260503191917 | 65 | 0.0 | 0.0 | 0.00 | 0.00 | 0.00 | 42 | 1020.9 | |
| 20260503191416 | 66 | 203 | 3.0 | 5.0 | 0.00 | 0.00 | 0.00 | 44 | 1020.9 |
| 20260503190916 | 66 | 135 | 2.0 | 3.0 | 0.00 | 0.00 | 0.00 | 42 | 1021.0 |
| 20260503190416 | 66 | 203 | 1.0 | 4.0 | 0.00 | 0.00 | 0.00 | 44 | 1020.9 |
| 20260503185916 | 65 | 0.0 | 1.0 | 0.00 | 0.00 | 0.00 | 43 | 1021.0 | |
| 20260503185416 | 65 | 248 | 3.0 | 5.0 | 0.00 | 0.00 | 0.00 | 43 | 1020.9 |
| 20260503184916 | 65 | 225 | 2.0 | 5.0 | 0.00 | 0.00 | 0.00 | 45 | 1021.0 |
| 20260503184417 | 65 | 0.0 | 1.0 | 0.00 | 0.00 | 0.00 | 45 | 1021.0 | |
| 20260503183917 | 65 | 90 | 2.0 | 5.0 | 0.00 | 0.00 | 0.00 | 44 | 1021.2 |
| 20260503183416 | 65 | 225 | 2.0 | 4.0 | 0.00 | 0.00 | 0.00 | 47 | 1021.3 |
| 20260503182917 | 65 | 135 | 2.0 | 6.0 | 0.00 | 0.00 | 0.00 | 44 | 1021.2 |
| 20260503182416 | 65 | 68 | 1.0 | 2.0 | 0.00 | 0.00 | 0.00 | 47 | 1021.5 |
| 20260503181917 | 66 | 248 | 2.0 | 5.0 | 0.00 | 0.00 | 0.00 | 45 | 1021.7 |
| 20260503181417 | 66 | 248 | 1.0 | 2.0 | 0.00 | 0.00 | 0.00 | 48 | 1021.6 |
| 20260503180917 | 65 | 90 | 1.0 | 2.0 | 0.00 | 0.00 | 0.00 | 47 | 1021.6 |
| 20260503180416 | 64 | 248 | 1.0 | 2.0 | 0.00 | 0.00 | 0.00 | 46 | 1021.7 |
| 20260503175917 | 64 | 135 | 1.0 | 2.0 | 0.00 | 0.00 | 0.00 | 42 | 1021.8 |
| 20260503175416 | 64 | 293 | 2.0 | 3.0 | 0.00 | 0.00 | 0.00 | 45 | 1021.9 |
| 20260503174916 | 65 | 113 | 1.0 | 2.0 | 0.00 | 0.00 | 0.00 | 45 | 1021.9 |
| 20260503174416 | 65 | 248 | 1.0 | 2.0 | 0.00 | 0.00 | 0.00 | 43 | 1022.0 |
| 20260503173916 | 64 | 135 | 1.0 | 2.0 | 0.00 | 0.00 | 0.00 | 50 | 1022.1 |
| 20260503173416 | 62 | 135 | 1.0 | 3.0 | 0.00 | 0.00 | 0.00 | 45 | 1022.0 |
| 20260503172916 | 62 | 68 | 3.0 | 4.0 | 0.00 | 0.00 | 0.00 | 46 | 1022.1 |
| 20260503172416 | 63 | 0.0 | 1.0 | 0.00 | 0.00 | 0.00 | 45 | 1022.2 | |
| 20260503171916 | 63 | 225 | 2.0 | 4.0 | 0.00 | 0.00 | 0.00 | 45 | 1022.4 |
| 20260503171416 | 62 | 0.0 | 1.0 | 0.00 | 0.00 | 0.00 | 51 | 1022.4 | |
| 20260503170917 | 62 | 180 | 1.0 | 2.0 | 0.00 | 0.00 | 0.00 | 42 | 1022.5 |
| 20260503170416 | 63 | 180 | 3.0 | 5.0 | 0.00 | 0.00 | 0.00 | 44 | 1022.6 |
| 20260503150916 | 56 | 248 | 1.0 | 1.0 | 0.00 | 0.00 | 0.00 | 54 | 1023.3 |
| 20260503150416 | 56 | 203 | 1.0 | 2.0 | 0.00 | 0.00 | 0.00 | 51 | 1023.4 |
| 20260503131416 | 54 | 0.0 | 0.0 | 0.00 | 0.00 | 0.00 | 70 | 1023.0 | |
| 20260503130916 | 52 | 90 | 1.0 | 2.0 | 0.00 | 0.00 | 0.00 | 66 | 1023.1 |
| 20260503130416 | 52 | 0.0 | 1.0 | 0.00 | 0.00 | 0.00 | 68 | 1023.1 | |
| 20260503110416 | 41 | 0.0 | 0.0 | 0.00 | 0.00 | 0.00 | 88 | 1021.7 |